Regional Weather Roundup
Issued by NWS Cleveland, OH

Home | Current Version | Previous Version | Graphics & Text | Print | Product List | Glossary On
Versions: 1 2 3 4 5 6 7 8 9 10 11 12 13 14 15 16 17 18 19 20 21 22 23 24 25 26 27 28 29 30 31 32 33 34 35 36 37 38 39 40 41 42 43 44 45 46 47 48 49 50
107
ASUS41 KCLE 060210
RWRCLE
OHIO REGIONAL WEATHER ROUNDUP
NATIONAL WEATHER SERVICE CLEVELAND, OH
900 PM EST MON DEC 05 2016

NOTE: "FAIR" INDICATES FEW OR NO CLOUDS BELOW 12,000 FEET WITH NO
SIGNIFICANT WEATHER AND/OR OBSTRUCTIONS TO VISIBILITY.

OHZ001>008-015>018-024>027-034-035-043-044-060300-
   NORTHWEST OHIO

CITY           SKY/WX    TMP DP  RH WIND       PRES   REMARKS
DEFIANCE       CLEAR     30  25  81 E3        30.05S HAZE
FINDLAY        CLEAR     31  26  82 E6        30.03F WCI  25
TOLEDO EXPRESS CLEAR     28  28 100 CALM      30.05F
TOLEDO EXEC    CLEAR     31  28  89 E5        30.07F WCI  26
LIMA           CLEAR     30  28  92 E7        30.01F WCI  23
$$

OHZ009>014-019>023-028>033-038-089-060300-
   NORTHEAST OHIO

CITY           SKY/WX    TMP DP  RH WIND       PRES   REMARKS
CLE-HOPKINS    CLOUDY    33  27  78 SE5       30.11S WCI  29
CLE-LAKEFRONT  CLEAR     36  28  73 SE3       30.09S
CUY CO. ARPT   CLEAR     30  28  93 S7        30.09S WCI  23
LORAIN-ELYRIA  CLEAR     29  25  85 SE3       30.08F
ASHTABULA      CLEAR     28  26  92 CALM      30.10F
AKRON-CANTON   CLEAR     34  27  75 SE6       30.07F WCI  29
WOOSTER        CLEAR     27  24  89 CALM      30.07F
MANSFIELD      CLOUDY    29  26  89 E6        30.04F WCI  23
YOUNGSTOWN     PTCLDY    29  27  92 S3        30.09S
$$

OHZ042-051>053-060>062-070>072-077>081-060300-
  SOUTHWEST OHIO

CITY           SKY/WX    TMP DP  RH WIND       PRES   REMARKS
CINC-COVINGTON MOCLDY    39  33  79 E13       29.95F
CINC-LUNKEN    MOCLDY    37  33  85 NE7       29.99F
HAMILTON       CLOUDY    35  30  82 E6        30.00F
DAYTON         PTCLDY    33  30  88 E9        30.01F WCI  25
WRIGHT-PAT AFB CLEAR     33  31  92 E8        30.00F WCI  26
DAYTON GENERAL CLOUDY    35  29  78 E10       29.98F WCI  27
WILMINGTON     PTCLDY    34  30  85 NE10      29.99F WCI  26
$$

OHZ036-037-039>041-045>050-054>059-063>069-073>076-082>088-060300-
  CENTRAL AND SOUTHEAST OHIO

CITY           SKY/WX    TMP DP  RH WIND       PRES   REMARKS
COLUMBUS       MOCLDY    33  30  88 E5        30.03F WCI  29
OSU AIRPORT    CLOUDY    31  28  89 E6        30.03F WCI  25
BOLTON FIELD   PTCLDY    32  29  88 CALM      30.04F
RICKENBACK AFB PTCLDY    31  29  92 E3        30.04F
NEWARK         CLOUDY    31  27  85 CALM      30.04F
MARION         CLEAR     28  24  85 E3        30.04F
LANCASTER      CLOUDY    32  28  85 E5        30.04F WCI  27
ZANESVILLE     CLOUDY    34  28  79 E3        30.06F
NEW PHILLY     CLOUDY    29  28  96 CALM      30.08F
$$




USA.gov is the U.S. government's official web portal to all federal, state and local government web resources and services.